DW9234 Weather Reports


time (UTC)temp
F
wind
direction
speed
knots
gust
knots
rain 1hr
in
rain 24hr
in
rain mn
in
humidity
%
barometer
mb
20260503205004 62 266 1.7 8.7 0.00 0.00 0.00 21 1014.8
20260503202004 62 71 4.3 10.4 0.00 0.00 0.00 21 1015.0
20260503201003 62 84 4.3 17.4 0.00 0.00 0.00 21 1015.1
20260503195005 61 60 1.7 7.8 0.00 0.00 0.00 23 1015.2
20260503194005 61 334 0.0 9.6 0.00 0.00 0.00 24 1015.2
20260503193004 60 55 5.2 7.8 0.00 0.00 0.00 24 1015.3
20260503192005 61 47 3.5 15.6 0.00 0.00 0.00 24 1015.5
20260503190005 60 117 3.5 7.0 0.00 0.00 0.00 23 1015.5
20260503185005 60 209 7.8 10.4 0.00 0.00 0.00 23 1015.8
20260503184003 61 72 3.5 10.4 0.00 0.00 0.00 23 1015.8
20260503183005 60 286 7.0 10.4 0.00 0.00 0.00 25 1015.9
20260503182006 61 57 3.5 11.3 0.00 0.00 0.00 21 1015.8
20260503181004 60 254 3.5 11.3 0.00 0.00 0.00 23 1015.9
20260503180004 60 46 5.2 9.6 0.00 0.00 0.00 24 1016.0
20260503175004 60 67 3.5 8.7 0.00 0.00 0.00 24 1016.0
20260503174004 59 53 2.6 7.0 0.00 0.00 0.00 22 1016.1
20260503173004 58 340 0.9 13.9 0.00 0.00 0.00 23 1016.1
20260503172004 58 60 4.3 6.1 0.00 0.00 0.00 26 1016.1
20260503171004 57 56 4.3 10.4 0.00 0.00 0.00 26 1016.2
20260503131005 47 64 4.3 6.1 0.00 0.00 0.00 45 1016.5
20260503081003 44 28 0.0 3.5 0.00 0.00 0.00 56 1013.8
20260503055004 48 329 0.0 2.6 0.00 0.00 0.00 49 1013.5
20260503054003 48 34 0.9 1.7 0.00 0.00 0.00 49 1013.7
20260503051004 49 32 0.9 1.7 0.00 0.00 0.00 46 1013.8
20260503050005 49 32 0.0 3.5 0.00 0.00 0.00 46 1013.8
20260503045004 50 106 0.9 5.2 0.00 0.00 0.00 45 1013.9
20260503044005 50 44 0.9 4.3 0.00 0.00 0.00 45 1014.1
20260503043004 50 217 0.0 7.0 0.00 0.00 0.00 45 1014.1
20260503042004 50 5 0.0 4.3 0.00 0.00 0.00 44 1014.1
20260503041003 50 53 0.9 1.7 0.00 0.00 0.00 45 1014.1
20260503040003 50 44 0.0 6.1 0.00 0.00 0.00 45 1014.2
20260503035003 51 171 0.9 1.7 0.00 0.00 0.00 44 1014.3
20260503034004 51 61 0.0 5.2 0.00 0.00 0.00 44 1014.3
20260503033003 51 136 0.9 3.5 0.00 0.00 0.00 45 1014.3
20260503031003 51 323 0.0 3.5 0.00 0.00 0.00 44 1014.4
20260503030004 51 338 0.9 1.7 0.00 0.00 0.00 44 1014.4
20260503025003 51 253 0.0 1.7 0.00 0.00 0.00 44 1014.4
20260503024004 51 254 0.0 0.9 0.00 0.00 0.00 43 1014.4
20260503023003 52 250 0.0 0.0 0.00 0.00 0.00 42 1014.5
20260503022004 52 250 0.0 0.0 0.00 0.00 0.00 42 1014.4
20260503021004 52 250 0.0 0.0 0.00 0.00 0.00 41 1014.4
20260503020003 52 250 0.0 0.0 0.00 0.00 0.00 39 1014.7
20260503015003 53 250 0.0 0.0 0.00 0.00 0.00 39 1014.5
20260503014004 53 250 0.0 0.0 0.00 0.00 0.00 38 1014.3
20260503013004 53 250 0.0 0.0 0.00 0.00 0.00 39 1014.3
20260503012004 54 244 0.0 0.9 0.00 0.00 0.00 38 1014.3
20260503011004 54 244 0.0 3.5 0.00 0.00 0.00 37 1014.1
20260503010003 54 251 0.0 0.0 0.00 0.00 0.00 37 1013.9
20260503005005 54 251 0.0 0.9 0.00 0.00 0.00 38 1013.7
20260503004004 55 251 0.0 0.9 0.00 0.00 0.00 36 1013.6
20260503001004 56 281 0.0 0.0 0.00 0.00 0.00 35 1013.4
20260503000003 56 277 0.0 0.0 0.00 0.00 0.00 35 1013.4
20260502235004 56 277 0.0 0.9 0.00 0.00 0.00 34 1013.3
20260502234004 57 277 0.0 1.7 0.00 0.00 0.00 34 1013.4
20260502233003 57 274 0.0 3.5 0.00 0.00 0.00 33 1013.3
20260502230004 58 54 0.9 1.7 0.00 0.00 0.00 31 1013.0
20260502225004 58 59 1.7 3.5 0.00 0.00 0.00 30 1013.0
20260502223004 59 71 0.9 4.3 0.00 0.00 0.00 29 1013.0
20260502222004 59 30 0.9 5.2 0.00 0.00 0.00 29 1013.1
20260502221004 59 275 0.0 6.1 0.00 0.00 0.00 29 1013.0
20260502220004 59 59 0.0 6.1 0.00 0.00 0.00 28 1012.9
20260502215004 60 46 0.9 8.7 0.00 0.00 0.00 29 1012.9
20260502214004 60 63 0.9 6.1 0.00 0.00 0.00 29 1013.0
20260502213004 60 92 0.0 3.5 0.00 0.00 0.00 27 1012.7